Location: *
(49.3500°N, 12.6000°E)
Time: 00:40:44
(UTC+00:00)

Cosmos 921 Rocket - Pass Details

Date: 18 October 2019
Orbit: 572 x 631 km, 75.8° (Epoch: 17 November)

Event Time Altitude Azimuth Distance (km) Brightness Sun altitude
Rises 17:09:32 0° 195° (SSW) 2,910 6.8 -9.7°
Reaches altitude 10° 17:11:47 10° 194° (SSW) 2,004 5.9 -10.1°
Maximum altitude 17:16:15 78° 109° (ESE) 646 3.0 -10.8°
Drops below altitude 10° 17:20:43 10° 23° (NNE) 1,997 5.4 -11.6°
Sets 17:22:58 0° 22° (NNE) 2,898 6.3 -11.9°
